CW6872 Branchburg NJ US current weather conditions

sailwx.info

Wind from 316 at 3 knots gusting 9

Air temperature 3.3° C
Dewpoint -3.3° C

Last reported at 2020-Jan-28 22:05 UTC.
Time now 2020-Jan-28 23:04 UTC

Location: N 40°33' W 074°44'.
View on Google Maps.

See reports from other nearby stations

  
Tides and Currents Weather Stations Pressure Air Temp Water Temp Dewpoint Dewpoint Depression Visibility Wind Speed Wind Dir Waves Ship Positions
date/time (UTC)wind fromknots sea level pressurealtimeterstation pressurevisibilityair tempwater tempwave heightnotes
2020-Jan-28 22:05 316 3 gusting 9 3.3
2020-Jan-28 22:00 313 3 gusting 8 3.3
2020-Jan-28 21:55 279 2 gusting 8 3.3
2020-Jan-28 21:50 274 3 gusting 8 3.3
2020-Jan-28 21:46 281 1 gusting 8 3.3
2020-Jan-28 21:40 261 3 gusting 12 3.9
2020-Jan-28 21:35 340 3 gusting 12 3.9
2020-Jan-28 21:30 295 2 gusting 6 3.9
2020-Jan-28 21:25 309 1 gusting 7 3.9
2020-Jan-28 21:20 343 2 gusting 7 3.9
2020-Jan-28 21:16 3.9
2020-Jan-28 21:10 349 2 gusting 8 3.9
2020-Jan-28 21:05 316 2 gusting 7 3.9
2020-Jan-28 21:00 340 1 gusting 7 3.9
2020-Jan-28 20:55 338 0 gusting 6 3.9
2020-Jan-28 20:50 313 0 gusting 9 3.9
2020-Jan-28 20:46 328 4 gusting 9 3.9
2020-Jan-28 20:40 295 2 gusting 9 3.9
2020-Jan-28 20:35 318 3 gusting 9 3.9
2020-Jan-28 20:30 330 1 gusting 10 3.9
2020-Jan-28 20:25 3.9
2020-Jan-28 20:20 300 3 gusting 10 3.9
2020-Jan-28 20:16 314 3 gusting 11 3.9
2020-Jan-28 20:10 309 3 gusting 11 3.3
2020-Jan-28 20:05 347 4 gusting 13 3.3
2020-Jan-28 20:00 339 6 gusting 14 3.9
2020-Jan-28 19:55 355 5 gusting 14 3.3
2020-Jan-28 19:50 359 5 gusting 11 3.3
2020-Jan-28 19:46 315 2 gusting 8 3.9
2020-Jan-28 19:40 323 2 gusting 8 3.9
2020-Jan-28 19:35 302 3 gusting 9 3.9
2020-Jan-28 19:31 007 3 gusting 9 3.9
2020-Jan-28 19:25 335 3 gusting 9 3.9
2020-Jan-28 19:20 344 3 gusting 12 3.9
2020-Jan-28 19:15 346 5 gusting 12 3.9
2020-Jan-28 19:10 291 1 gusting 9 3.9
2020-Jan-28 19:05 283 4 gusting 11 3.3
2020-Jan-28 19:00 290 3 gusting 11 3.3
2020-Jan-28 18:55 359 2 gusting 9 3.3
2020-Jan-28 18:50 359 4 gusting 9 3.3
2020-Jan-28 18:45 336 3 gusting 11 3.9
2020-Jan-28 18:40 283 3 gusting 11 3.9
2020-Jan-28 18:35 248 2 gusting 9 3.9
2020-Jan-28 18:30 328 4 gusting 9 3.9
2020-Jan-28 18:25 315 3 gusting 9 3.9
2020-Jan-28 18:20 310 2 gusting 9 3.9
2020-Jan-28 18:16 275 2 gusting 10 3.9
2020-Jan-28 18:10 001 4 gusting 10 3.9
2020-Jan-28 18:05 356 2 gusting 7 3.9
2020-Jan-28 18:00 297 2 gusting 7 3.9
2020-Jan-28 17:55 313 4 gusting 10 3.9
2020-Jan-28 17:50 345 3 gusting 10 3.9
2020-Jan-28 17:45 340 2 gusting 10 3.9
2020-Jan-28 17:40 349 4 gusting 12 3.9
2020-Jan-28 17:35 318 4 gusting 12 4.4
2020-Jan-28 17:32 295 4 gusting 10 4.4
2020-Jan-28 17:25 360 5 gusting 11 4.4
2020-Jan-28 17:20 274 5 gusting 14 5.0
2020-Jan-28 17:16 282 5 gusting 15 5.0
2020-Jan-28 17:10 340 6 gusting 15 5.0
2020-Jan-28 17:05 329 6 gusting 13 5.6
2020-Jan-28 17:00 269 4 gusting 21 5.6
2020-Jan-28 16:55 358 5 gusting 21 5.6
2020-Jan-28 16:50 281 4 gusting 15 5.6
2020-Jan-28 16:45 345 5 gusting 15 5.0
2020-Jan-28 16:40 355 6 gusting 13 5.0
2020-Jan-28 16:35 360 6 gusting 13 5.0
2020-Jan-28 16:30 349 6 gusting 20 5.0
2020-Jan-28 16:25 349 5 gusting 20 5.0
2020-Jan-28 16:20 349 6 gusting 13 5.0
2020-Jan-28 16:15 358 4 gusting 17 5.0
2020-Jan-28 16:10 311 6 gusting 17 5.0
2020-Jan-28 16:05 334 5 gusting 14 5.0
2020-Jan-28 16:00 344 6 gusting 14 5.0
2020-Jan-28 15:55 331 6 gusting 17 5.0
2020-Jan-28 15:50 234 6 gusting 17 5.0
2020-Jan-28 15:45 286 6 gusting 18 5.0
2020-Jan-28 15:40 327 4 gusting 18 5.0
2020-Jan-28 15:35 340 6 gusting 15 5.0
2020-Jan-28 15:30 317 5 gusting 15 5.0
2020-Jan-28 15:25 302 6 gusting 13 5.0
2020-Jan-28 15:20 350 6 gusting 16 4.4
2020-Jan-28 15:15 355 6 gusting 16 4.4
2020-Jan-28 15:10 285 3 gusting 12 5.0
2020-Jan-28 15:05 351 3 gusting 13 4.4
2020-Jan-28 15:00 335 6 gusting 14 4.4
2020-Jan-28 14:55 342 6 gusting 14 4.4
2020-Jan-28 14:50 359 4 gusting 12 4.4
2020-Jan-28 14:46 341 6 gusting 13 4.4
2020-Jan-28 14:40 359 5 gusting 14 4.4
2020-Jan-28 14:35 295 5 gusting 15 3.9
2020-Jan-28 14:31 295 6 gusting 15 3.9
2020-Jan-28 14:25 005 6 gusting 14 3.9
2020-Jan-28 14:20 004 3 gusting 14 3.9
2020-Jan-28 14:16 304 3 gusting 11 3.9
2020-Jan-28 14:10 293 5 gusting 11 3.9
2020-Jan-28 14:05 308 4 gusting 18 3.9
2020-Jan-28 14:00 285 4 gusting 18 3.3
2020-Jan-28 13:55 233 2 gusting 9 3.3
2020-Jan-28 13:50 326 2 gusting 9 3.3
2020-Jan-28 13:45 281 4 gusting 9 3.3
2020-Jan-28 13:40 297 3 gusting 13 2.8
2020-Jan-28 13:35 316 6 gusting 13 2.2
2020-Jan-28 13:31 283 4 gusting 10 2.2
2020-Jan-28 13:25 296 3 gusting 8 1.7
2020-Jan-28 13:20 287 3 gusting 8 1.7
2020-Jan-28 13:15 275 1 gusting 6 1.1
2020-Jan-28 13:10 302 1 gusting 4 1.1
2020-Jan-28 13:05 308 1 gusting 4 0.6
2020-Jan-28 13:01 0.6
2020-Jan-28 12:55 0.6
2020-Jan-28 12:50 0.6
2020-Jan-28 12:46 0.6
2020-Jan-28 12:40 285 0.6
2020-Jan-28 12:35 276 0 gusting 2 0.6
2020-Jan-28 12:30 283 0 gusting 2 0.6
2020-Jan-28 12:25 0.6
2020-Jan-28 12:20 0.6
2020-Jan-28 12:15 298 0 gusting 3 0.6
2020-Jan-28 12:10 0.6
2020-Jan-28 12:05 278 0 gusting 2 0.6
2020-Jan-28 12:00 0.6
2020-Jan-28 11:55 1.1
2020-Jan-28 11:50 1.1
2020-Jan-28 11:45 293 1.1
2020-Jan-28 11:40 1.1
2020-Jan-28 11:35 1.1
2020-Jan-28 11:30 1.7
2020-Jan-28 11:25 1.7
2020-Jan-28 11:20 270 1.7
2020-Jan-28 11:15 1.7
2020-Jan-28 11:10 1.7
2020-Jan-28 11:05 2.2
2020-Jan-28 11:00 2.2
2020-Jan-28 10:55 307 0 gusting 3 2.2
2020-Jan-28 10:50 2.2
2020-Jan-28 10:45 287 0 gusting 6 2.2
2020-Jan-28 10:40 2.2
2020-Jan-28 10:35 290 0 gusting 6 2.2
2020-Jan-28 10:30 326 0 gusting 6 2.2
2020-Jan-28 10:25 298 2 gusting 6 2.2
2020-Jan-28 10:20 278 1 gusting 6 2.2
2020-Jan-28 10:15 308 2 gusting 7 2.2
2020-Jan-28 10:10 329 2 gusting 7 2.2
2020-Jan-28 10:05 330 1 gusting 6 2.2
2020-Jan-28 10:00 274 2 gusting 6 2.2
2020-Jan-28 09:55 321 1 gusting 10 2.8
2020-Jan-28 09:50 342 2 gusting 10 2.2
2020-Jan-28 09:45 300 1 gusting 8 2.2
2020-Jan-28 09:40 297 2 gusting 8 2.2
2020-Jan-28 09:35 289 2 gusting 8 2.2
2020-Jan-28 09:25 263 1 gusting 7 2.8
2020-Jan-28 09:20 314 1 gusting 9 2.8
2020-Jan-28 09:15 322 3 gusting 9 2.8
2020-Jan-28 09:10 278 1 gusting 7 2.8
2020-Jan-28 09:05 317 1 gusting 6 2.8
2020-Jan-28 09:00 307 2 gusting 6 2.8
2020-Jan-28 08:55 274 0 gusting 6 2.8
2020-Jan-28 08:50 320 1 gusting 6 2.8
2020-Jan-28 08:45 2.8
2020-Jan-28 08:40 307 2 gusting 7 2.8
2020-Jan-28 08:35 281 3 gusting 7 2.8
2020-Jan-28 08:30 319 0 gusting 4 2.8
2020-Jan-28 08:25 335 0 gusting 4 2.8
2020-Jan-28 08:20 329 0 gusting 6 2.8
2020-Jan-28 08:16 354 2 gusting 9 2.8
2020-Jan-28 08:10 311 2 gusting 9 2.8
2020-Jan-28 08:05 354 3 gusting 7 2.8
2020-Jan-28 08:00 316 1 gusting 6 2.2
2020-Jan-28 07:55 333 1 gusting 5 2.2
2020-Jan-28 07:50 2.8
2020-Jan-28 07:45 301 0 gusting 3 2.8
2020-Jan-28 07:40 284 1 gusting 3 2.8
2020-Jan-28 07:35 257 0 gusting 3 2.8
2020-Jan-28 07:30 281 1 gusting 3 2.8
2020-Jan-28 07:25 297 0 gusting 4 2.8
2020-Jan-28 07:20 268 2.8
2020-Jan-28 07:15 302 0 gusting 4 2.8
2020-Jan-28 07:10 2.8
2020-Jan-28 07:05 275 0 gusting 6 2.8
2020-Jan-28 07:00 2.8
2020-Jan-28 06:55 314 2 gusting 6 2.8
2020-Jan-28 06:50 2.8
2020-Jan-28 06:45 300 1 gusting 5 2.8
2020-Jan-28 06:40 318 1 gusting 6 2.8
2020-Jan-28 06:35 329 2 gusting 6 2.8
2020-Jan-28 06:30 338 3 gusting 6 2.8
2020-Jan-28 06:25 356 2 gusting 10 2.8
2020-Jan-28 06:20 354 3 gusting 10 2.8
2020-Jan-28 06:15 001 2 gusting 5 2.8
2020-Jan-28 06:10 316 0 gusting 4 2.8
2020-Jan-28 06:05 326 1 gusting 4 2.8
2020-Jan-28 06:00 301 1 gusting 4 2.8
2020-Jan-28 05:55 309 0 gusting 3 3.3
2020-Jan-28 05:50 303 0 gusting 3 3.3
2020-Jan-28 05:45 3.3
2020-Jan-28 05:40 309 0 gusting 4 3.3
2020-Jan-28 05:35 3.3
2020-Jan-28 05:30 304 2 gusting 5 3.3
2020-Jan-28 05:25 311 1 gusting 5 3.3
2020-Jan-28 05:20 288 3.3
2020-Jan-28 05:15 275 2 gusting 4 3.3
2020-Jan-28 05:10 300 0 gusting 3 3.3
2020-Jan-28 05:05 3.3
2020-Jan-28 05:00 296 0 gusting 4 3.3
2020-Jan-28 04:55 297 1 gusting 4 3.3
2020-Jan-28 04:50 3.3
2020-Jan-28 04:46 304 1 gusting 5 3.3
2020-Jan-28 04:40 304 1 gusting 5 3.3
2020-Jan-28 04:35 306 1 gusting 5 3.9
2020-Jan-28 04:30 301 3.9
2020-Jan-28 04:25 319 0 gusting 5 3.9
2020-Jan-28 04:20 274 1 gusting 5 3.9
2020-Jan-28 04:16 282 0 gusting 4 3.9
2020-Jan-28 04:10 3.9
2020-Jan-28 04:05 349 0 gusting 6 3.9
2020-Jan-28 03:55 313 1 gusting 8 3.9
2020-Jan-28 03:50 314 3 gusting 8 3.9
2020-Jan-28 03:45 282 2 gusting 7 3.9
2020-Jan-28 03:40 301 1 gusting 6 4.4
2020-Jan-28 03:35 311 1 gusting 9 4.4
2020-Jan-28 03:30 311 2 gusting 9 4.4
2020-Jan-28 03:25 311 2 gusting 9 4.4
2020-Jan-28 03:20 311 3 gusting 9 4.4
2020-Jan-28 03:15 350 1 gusting 7 4.4
2020-Jan-28 03:10 295 2 gusting 7 4.4
2020-Jan-28 03:05 314 2 gusting 7 3.9
2020-Jan-28 03:00 345 0 gusting 6 3.9
2020-Jan-28 02:55 300 1 gusting 6 3.9
2020-Jan-28 02:50 296 2 gusting 6 3.9
2020-Jan-28 02:46 278 1 gusting 4 3.9
2020-Jan-28 02:40 312 0 gusting 3 3.9
2020-Jan-28 02:35 3.9
2020-Jan-28 02:30 3.9
2020-Jan-28 02:25 290 0 gusting 3 3.9
2020-Jan-28 02:20 256 3.9
2020-Jan-28 02:15 270 0 gusting 4 3.9
2020-Jan-28 02:10 283 0 gusting 4 3.9
2020-Jan-28 02:05 233 3.9
2020-Jan-28 02:00 293 3.9
2020-Jan-28 01:55 273 3.9
2020-Jan-28 01:50 293 3.9
2020-Jan-28 01:45 3.9
2020-Jan-28 01:40 266 3.9
2020-Jan-28 01:35 277 4.4
2020-Jan-28 01:30 4.4
2020-Jan-28 01:25 309 4.4
2020-Jan-28 01:20 273 4.4
2020-Jan-28 01:16 254 4.4
2020-Jan-28 01:10 4.4
2020-Jan-28 01:05 302 4.4
2020-Jan-28 01:00 4.4
2020-Jan-28 00:55 283 0 gusting 6 4.4
2020-Jan-28 00:50 292 0 gusting 4 4.4
2020-Jan-28 00:46 295 1 gusting 5 4.4
2020-Jan-28 00:40 278 1 gusting 5 4.4
2020-Jan-28 00:35 276 1 gusting 5 4.4
2020-Jan-28 00:30 289 1 gusting 5 4.4
2020-Jan-28 00:25 4.4
2020-Jan-28 00:20 311 0 gusting 6 4.4
2020-Jan-28 00:15 311 1 gusting 6 4.4
2020-Jan-28 00:10 292 1 gusting 5 4.4
2020-Jan-28 00:05 285 1 gusting 5 4.4
2020-Jan-28 00:00 317 0 gusting 3 4.4
2020-Jan-27 23:55 312 4.4
2020-Jan-27 23:50 4.4
2020-Jan-27 23:45 4.4
2020-Jan-27 23:40 265 4.4
2020-Jan-27 23:35 5.0
2020-Jan-27 23:30 5.0
2020-Jan-27 23:25 5.0
2020-Jan-27 23:20 266 0 gusting 6 5.0
2020-Jan-27 23:15 293 0 gusting 6 5.0
2020-Jan-27 23:10 264 1 gusting 6 5.0
2020-Jan-27 23:05 278 1 gusting 5 5.0
2020-Jan-27 23:00 5.0
2020-Jan-27 22:55 269 1 gusting 7 5.0
2020-Jan-27 22:50 288 1 gusting 7 5.0
2020-Jan-27 22:45 295 2 gusting 7 5.0
2020-Jan-27 22:40 318 2 gusting 6 5.0
2020-Jan-27 22:35 312 1 gusting 6 5.0
2020-Jan-27 22:30 307 1 gusting 7 5.6
2020-Jan-27 22:25 291 3 gusting 7 5.6
2020-Jan-27 22:20 281 2 gusting 8 5.6
2020-Jan-27 22:15 325 2 gusting 8 5.6
2020-Jan-27 22:10 283 1 gusting 6 5.6
2020-Jan-27 22:05 307 2 gusting 8 5.6
2020-Jan-27 22:01 269 2 gusting 11 5.6
2020-Jan-27 21:55 307 5 gusting 11 5.6
2020-Jan-27 21:50 224 3 gusting 9 5.6
2020-Jan-27 21:45 257 3 gusting 9 5.6
2020-Jan-27 21:40 296 1 gusting 7 5.6
2020-Jan-27 21:35 285 3 gusting 7 5.6
2020-Jan-27 21:30 273 3 gusting 7 5.6
2020-Jan-27 21:25 359 1 gusting 9 5.6
2020-Jan-27 21:20 277 4 gusting 9 5.6
2020-Jan-27 21:15 302 1 gusting 8 5.6
2020-Jan-27 21:10 279 2 gusting 9 5.6
2020-Jan-27 21:05 287 3 gusting 9 6.1
2020-Jan-27 21:00 335 2 gusting 8 6.1
2020-Jan-27 20:55 235 4 gusting 8 6.1
2020-Jan-27 20:50 266 2 gusting 8 6.1
2020-Jan-27 20:45 289 2 gusting 11 6.1
2020-Jan-27 20:40 282 4 gusting 11 6.1
2020-Jan-27 20:35 300 1 gusting 9 6.1
2020-Jan-27 20:30 276 2 gusting 11 6.1
2020-Jan-27 20:25 283 3 gusting 11 6.1
2020-Jan-27 20:20 297 2 gusting 8 6.1
2020-Jan-27 20:15 271 3 gusting 7 6.1
2020-Jan-27 20:10 295 2 gusting 6 6.1
2020-Jan-27 20:05 325 2 gusting 6 6.1
2020-Jan-27 20:00 295 1 gusting 7 6.1
2020-Jan-27 19:55 319 2 gusting 9 6.1
2020-Jan-27 19:50 302 3 gusting 11 6.1
2020-Jan-27 19:45 306 3 gusting 12 6.1
2020-Jan-27 19:40 316 6 gusting 12 6.7
2020-Jan-27 19:35 247 0 gusting 11 6.7
2020-Jan-27 19:30 325 2 gusting 11 6.1
2020-Jan-27 19:25 308 1 gusting 9 6.1
2020-Jan-27 19:20 6.1
2020-Jan-27 19:15 314 1 gusting 9 6.1
2020-Jan-27 19:10 345 3 gusting 9 6.1
2020-Jan-27 19:05 238 1 gusting 7 6.1
2020-Jan-27 19:00 292 2 gusting 7 6.1
2020-Jan-27 18:55 300 2 gusting 7 6.1
2020-Jan-27 18:50 303 3 gusting 6 6.1
2020-Jan-27 18:45 260 3 gusting 9 6.1
2020-Jan-27 18:40 291 1 gusting 9 6.1
2020-Jan-27 18:35 266 2 gusting 8 6.1
2020-Jan-27 18:30 205 3 gusting 8 6.1
2020-Jan-27 18:25 262 4 gusting 11 6.1
2020-Jan-27 18:20 295 3 gusting 11 5.6
2020-Jan-27 18:16 287 3 gusting 9 5.6
2020-Jan-27 18:10 269 2 gusting 9 5.6
2020-Jan-27 18:05 297 0 gusting 6 6.1
2020-Jan-27 18:00 6.1
2020-Jan-27 17:55 6.1
2020-Jan-27 17:50 300 1 gusting 9 6.1
2020-Jan-27 17:45 264 4 gusting 13 6.1
2020-Jan-27 17:40 158 3 gusting 13 6.1
2020-Jan-27 17:35 269 2 gusting 7 6.1
2020-Jan-27 17:30 359 0 gusting 7 6.1
2020-Jan-27 17:25 306 1 gusting 6 6.1
2020-Jan-27 17:20 6.1
2020-Jan-27 17:15 352 2 gusting 9 6.1
2020-Jan-27 17:10 006 0 gusting 9 5.6
2020-Jan-27 17:05 250 5 gusting 9 5.6
2020-Jan-27 17:00 307 2 gusting 8 5.6
2020-Jan-27 16:55 257 1 gusting 8 5.6
2020-Jan-27 16:50 264 2 gusting 8 5.6
2020-Jan-27 16:46 189 1 gusting 8 5.0
2020-Jan-27 16:40 339 2 gusting 8 5.0
2020-Jan-27 16:35 334 5.0
2020-Jan-27 16:30 253 0 gusting 5 4.4
2020-Jan-27 16:25 265 4.4
2020-Jan-27 16:20 4.4
2020-Jan-27 16:15 285 0 gusting 5 4.4
2020-Jan-27 16:10 266 0 gusting 4 4.4
2020-Jan-27 16:05 4.4
2020-Jan-27 16:00 206 0 gusting 5 4.4
2020-Jan-27 15:55 328 0 gusting 5 4.4
2020-Jan-27 15:50 4.4
2020-Jan-27 15:46 190 4.4
2020-Jan-27 15:40 273 0 gusting 4 4.4
2020-Jan-27 15:35 221 1 gusting 5 4.4
2020-Jan-27 15:30 188 1 gusting 5 4.4
2020-Jan-27 15:25 172 0 gusting 4 4.4
2020-Jan-27 15:20 184 4.4
2020-Jan-27 15:16 4.4
2020-Jan-27 15:10 3.9
2020-Jan-27 15:05 210 3.9
2020-Jan-27 15:01 190 1 gusting 5 3.9
2020-Jan-27 14:55 176 0 gusting 5 3.9
2020-Jan-27 14:50 3.9
2020-Jan-27 14:45 208 0 gusting 5 3.9
2020-Jan-27 14:40 3.9
2020-Jan-27 14:35 221 0 gusting 5 3.3
2020-Jan-27 14:31 3.3
2020-Jan-27 14:25 3.3
2020-Jan-27 14:20 213 3.3
2020-Jan-27 14:15 220 0 gusting 3 2.8
2020-Jan-27 14:10 2.8
2020-Jan-27 14:05 2.8
2020-Jan-27 14:00 183 2.8
2020-Jan-27 13:55 209 0 gusting 4 2.8
2020-Jan-27 13:50 2.8
2020-Jan-27 13:45 222 1 gusting 6 2.8
2020-Jan-27 13:40 224 1 gusting 5 2.2
2020-Jan-27 13:35 2.2
2020-Jan-27 13:31 214 2.2
2020-Jan-27 13:25 218 2.2
2020-Jan-27 13:20 193 2.2
2020-Jan-27 13:16 191 0 gusting 4 2.2
2020-Jan-27 13:10 211 1.7
2020-Jan-27 13:05 188 1.7
2020-Jan-27 13:00 1.7
2020-Jan-27 12:55 1.7
2020-Jan-27 12:50 1.7
2020-Jan-27 12:45 1.7
2020-Jan-27 12:40 1.7
2020-Jan-27 12:35 1.7
2020-Jan-27 12:30 182 1.7
2020-Jan-27 12:25 1.7
2020-Jan-27 12:20 1.7
2020-Jan-27 12:17 1.7
2020-Jan-27 12:10 1.7
2020-Jan-27 12:05 1.7
2020-Jan-27 12:00 165 1.7
2020-Jan-27 11:55 1.7
2020-Jan-27 11:50 186 1.7
2020-Jan-27 11:45 1.7
2020-Jan-27 11:40 1.7
2020-Jan-27 11:35 1.1
2020-Jan-27 11:30 1.1
2020-Jan-27 11:25 211 1.1
2020-Jan-27 11:20 1.1
2020-Jan-27 11:15 1.1
2020-Jan-27 11:10 1.1
2020-Jan-27 11:05 1.1
2020-Jan-27 11:00 1.1
2020-Jan-27 10:55 179 1.1
2020-Jan-27 10:50 250 1.1
2020-Jan-27 10:45 224 1.1
2020-Jan-27 10:40 1.1
2020-Jan-27 10:35 235 1.1
2020-Jan-27 10:31 1.7
2020-Jan-27 10:25 188 1.7
2020-Jan-27 10:20 1.7
2020-Jan-27 10:15 1.7
2020-Jan-27 10:10 1.7
2020-Jan-27 10:05 259 1.7
2020-Jan-27 10:00 1.7
2020-Jan-27 09:55 1.7
2020-Jan-27 09:50 1.7
2020-Jan-27 09:46 193 1.7
2020-Jan-27 09:40 184 0 gusting 4 1.7
2020-Jan-27 09:35 1.7
2020-Jan-27 09:31 1.7
2020-Jan-27 09:25 214 1.7
2020-Jan-27 09:20 1.7
2020-Jan-27 09:16 1.7
2020-Jan-27 09:10 1.1
2020-Jan-27 09:05 1.1
2020-Jan-27 09:00 1.1
2020-Jan-27 08:55 188 1.1
2020-Jan-27 08:50 257 1.1
2020-Jan-27 08:46 1.1
2020-Jan-27 08:40 1.1
2020-Jan-27 08:35 1.1
2020-Jan-27 08:30 1.1
2020-Jan-27 08:25 1.1
2020-Jan-27 08:20 1.1
2020-Jan-27 08:15 1.1
2020-Jan-27 08:10 1.1
2020-Jan-27 08:05 1.1
2020-Jan-27 08:00 1.1
2020-Jan-27 07:55 1.1
2020-Jan-27 07:50 1.1
2020-Jan-27 07:45 1.1
2020-Jan-27 07:40 189 1.1
2020-Jan-27 07:35 183 1.1
2020-Jan-27 07:30 1.1
2020-Jan-27 07:25 203 0.6
2020-Jan-27 07:20 0.6
2020-Jan-27 07:15 0.6
2020-Jan-27 07:10 0.6
2020-Jan-27 07:05 0.6
2020-Jan-27 07:00 1.1
2020-Jan-27 06:55 1.1
2020-Jan-27 06:50 231 1.1
2020-Jan-27 06:45 1.1
2020-Jan-27 06:40 1.1
2020-Jan-27 06:35 1.1
2020-Jan-27 06:30 0.6
2020-Jan-27 06:25 260 0.6
2020-Jan-27 06:20 0.6
2020-Jan-27 06:16 0.6
2020-Jan-27 06:10 0.6
2020-Jan-27 06:05 -0.0
2020-Jan-27 06:00 -0.0
2020-Jan-27 05:55 -0.0
2020-Jan-27 05:50 -0.0
2020-Jan-27 05:45 0.6
2020-Jan-27 05:40 0.6
2020-Jan-27 05:35 0.6
2020-Jan-27 05:30 0.6
2020-Jan-27 05:25 0.6
2020-Jan-27 05:20 0.6
2020-Jan-27 05:15 0.6
2020-Jan-27 05:10 0.6
2020-Jan-27 05:05 0.6
2020-Jan-27 05:00 1.1
2020-Jan-27 04:55 1.1
2020-Jan-27 04:50 1.1
2020-Jan-27 04:45 1.1
2020-Jan-27 04:40 1.1
2020-Jan-27 04:35 1.7
2020-Jan-27 04:25 1.7
2020-Jan-27 04:20 1.7
2020-Jan-27 04:15 1.7
2020-Jan-27 04:10 1.7
2020-Jan-27 04:05 207 2.2
2020-Jan-27 04:01 2.2
2020-Jan-27 03:55 2.2
2020-Jan-27 03:50 2.2
2020-Jan-27 03:45 2.2
2020-Jan-27 03:40 206 2.8
2020-Jan-27 03:35 299 2.8
2020-Jan-27 03:30 290 1 gusting 6 2.8
2020-Jan-27 03:25 319 0 gusting 6 2.8
2020-Jan-27 03:20 281 1 gusting 8 2.8
2020-Jan-27 03:16 221 0 gusting 8 2.8
2020-Jan-27 03:10 245 2 gusting 6 2.8
2020-Jan-27 03:05 264 2 gusting 7 2.8
2020-Jan-27 03:00 279 2 gusting 7 2.8
2020-Jan-27 02:55 277 0 gusting 5 2.2
2020-Jan-27 02:50 290 2.8
2020-Jan-27 02:45 2.8
2020-Jan-27 02:40 2.8
2020-Jan-27 02:35 277 1 gusting 4 2.8
2020-Jan-27 02:31 281 1 gusting 3 2.8
2020-Jan-27 02:25 2.8
2020-Jan-27 02:20 267 0 gusting 4 2.8
2020-Jan-27 02:15 2.8
2020-Jan-27 02:10 291 0 gusting 6 2.8
2020-Jan-27 02:05 270 2.8
2020-Jan-27 02:00 264 0 gusting 4 2.2
2020-Jan-27 01:55 285 0 gusting 3 2.2
2020-Jan-27 01:50 2.2
2020-Jan-27 01:46 2.8
2020-Jan-27 01:40 2.8
2020-Jan-27 01:35 2.8
2020-Jan-27 01:30 2.8
2020-Jan-27 01:25 297 1 gusting 6 2.2
2020-Jan-27 01:20 2.2
2020-Jan-27 01:15 2.2
2020-Jan-27 01:10 2.2
2020-Jan-27 01:05 2.2
2020-Jan-27 01:01 2.2
2020-Jan-27 00:55 2.8
2020-Jan-27 00:50 2.8
2020-Jan-27 00:46 2.8
2020-Jan-27 00:40 2.8
2020-Jan-27 00:35 2.8
2020-Jan-27 00:32 2.8
2020-Jan-27 00:25 3.3
2020-Jan-27 00:20 3.3
2020-Jan-27 00:15 3.3
2020-Jan-27 00:10 256 0 gusting 4 3.3
2020-Jan-27 00:05 3.9
2020-Jan-27 00:00 3.9
2020-Jan-26 23:55 264 0 gusting 6 3.9
2020-Jan-26 23:50 283 3 gusting 7 3.9
2020-Jan-26 23:46 311 2 gusting 12 3.9
2020-Jan-26 23:40 297 4 gusting 12 3.9
2020-Jan-26 23:35 238 3 gusting 7 3.9
2020-Jan-26 23:31 286 2 gusting 7 3.9
2020-Jan-26 23:25 324 2 gusting 7 4.4
2020-Jan-26 23:20 305 3 gusting 7 4.4
2020-Jan-26 23:15 314 1 gusting 7 4.4
2020-Jan-26 23:10 279 3 gusting 6 4.4
2020-Jan-26 23:05 309 1 gusting 5 4.4
2020-Jan-26 23:00 302 0 gusting 6 5.0